Location: Newark
(52.3500°N, 175.9667°E)
Time: 00:28:34
(UTC+00:00)

Vanguard 1 - Pass Details

Date: 26 April 2021
Orbit: 649 x 3834 km, 34.2° (Epoch: 04 May)

Event Time Altitude Azimuth Distance (km) Brightness Sun altitude
Rises 22:46:58 0° 186° (S) 4,481 13.9 47.8°
Reaches altitude 10° 22:51:20 10° 164° (SSE) 4,035 14.1 48.1°
Maximum altitude 22:57:07 16° 132° (SE) 4,255 14.3 48.5°
Drops below altitude 10° 23:04:36 10° 103° (ESE) 5,486 14.4 49.1°
Sets 23:12:34 0° 86° (E) 7,173 14.6 49.6°
